When you browse on this site, cookies collect data to enhance your experience and personalize the content and advertising you see.
Visit our Privacy Policy to learn more. By continuing to use the site, you agree to this use of cookies and data.
  • In Romania
  • List of Countries
  • For 7 days
  • Water Temperature
  • Weather Map
  • Weather Widgets
  • user-avatar
    Login

    Hourly Weather Maracay

    Today, 16 December, Monday

    Time Temperature Precipitation Wind Pressure Humidity
    00:00 +23°C° 0.1 mm 1 mps 711 mmHg 90%
    01:00 +23°C° 0.1 mm 1 mps 711 mmHg 90%
    02:00 +23°C° 0.1 mm 1 mps 710 mmHg 90%
    03:00 +23°C° 0.1 mm 1 mps 710 mmHg 90%
    04:00 +23°C° 0.1 mm 1 mps 710 mmHg 90%
    05:00 +23°C° 0 mm 1 mps 711 mmHg 89%
    06:00 +24°C° 0 mm 1 mps 711 mmHg 88%
    07:00 +22°C° 0 mm 0 mps 711 mmHg 86%
    08:00 +26°C° 0.1 mm 1 mps 712 mmHg 79%
    09:00 +27°C° 0.1 mm 1 mps 712 mmHg 73%
    10:00 +29°C° 0.1 mm 1 mps 713 mmHg 66%
    11:00 +29°C° 0.6 mm 1 mps 712 mmHg 66%
    12:00 +30°C° 0.6 mm 1 mps 711 mmHg 66%
    13:00 +30°C° 0.6 mm 1 mps 710 mmHg 66%
    14:00 +29°C° 0.5 mm 2 mps 710 mmHg 71%
    15:00 +28°C° 0.5 mm 2 mps 709 mmHg 76%
    16:00 +27°C° 0.5 mm 2 mps 709 mmHg 81%
    17:00 +26°C° 0.2 mm 2 mps 709 mmHg 85%
    18:00 +25°C° 0.2 mm 2 mps 709 mmHg 88%
    19:00 +24°C° 0.2 mm 2 mps 709 mmHg 91%
    20:00 +24°C° 0.1 mm 2 mps 710 mmHg 91%
    21:00 +24°C° 0.1 mm 1 mps 710 mmHg 91%
    22:00 +23°C° 0.1 mm 1 mps 711 mmHg 91%
    23:00 +23°C° 0.1 mm 1 mps 710 mmHg 91%

    Tomorrow, 17 December, Tuesday

    Time Temperature Precipitation Wind Pressure Humidity
    00:00 +23°C° 0.1 mm 1 mps 710 mmHg 91%
    01:00 +23°C° 0.1 mm 1 mps 709 mmHg 91%
    02:00 +23°C° 0 mm 1 mps 709 mmHg 91%
    03:00 +22°C° 0 mm 1 mps 709 mmHg 91%
    04:00 +22°C° 0 mm 1 mps 709 mmHg 90%
    05:00 +23°C° 0 mm 1 mps 710 mmHg 89%
    06:00 +23°C° 0 mm 1 mps 710 mmHg 87%
    07:00 +24°C° 0 mm 1 mps 710 mmHg 85%
    08:00 +25°C° 0 mm 1 mps 711 mmHg 79%
    09:00 +27°C° 0 mm 2 mps 711 mmHg 72%
    10:00 +28°C° 0 mm 2 mps 711 mmHg 66%
    11:00 +29°C° 0.2 mm 2 mps 711 mmHg 65%
    12:00 +29°C° 0.2 mm 3 mps 710 mmHg 63%
    13:00 +29°C° 0.2 mm 3 mps 709 mmHg 62%
    14:00 +29°C° 0.1 mm 3 mps 709 mmHg 64%
    15:00 +29°C° 0.1 mm 2 mps 708 mmHg 67%
    16:00 +28°C° 0.1 mm 2 mps 708 mmHg 69%
    17:00 +27°C° 0.1 mm 2 mps 708 mmHg 75%
    18:00 +26°C° 0.1 mm 2 mps 708 mmHg 80%
    19:00 +24°C° 0.1 mm 1 mps 708 mmHg 86%
    20:00 +24°C° 0.2 mm 1 mps 709 mmHg 86%
    21:00 +24°C° 0.2 mm 1 mps 709 mmHg 87%
    22:00 +24°C° 0.2 mm 1 mps 710 mmHg 87%
    23:00 +23°C° 0 mm 1 mps 709 mmHg 87%

    Day after tomorrow, 18 December, Wednesday

    Time Temperature Precipitation Wind Pressure Humidity
    00:00 +23°C° 0 mm 1 mps 709 mmHg 88%
    01:00 +23°C° 0 mm 1 mps 709 mmHg 88%
    02:00 +23°C° 0 mm 1 mps 709 mmHg 89%
    03:00 +22°C° 0 mm 1 mps 709 mmHg 89%
    04:00 +22°C° 0 mm 1 mps 709 mmHg 89%
    05:00 +23°C° 0 mm 1 mps 709 mmHg 87%
    06:00 +23°C° 0 mm 1 mps 710 mmHg 84%
    07:00 +24°C° 0 mm 1 mps 711 mmHg 82%
    08:00 +25°C° 0 mm 2 mps 711 mmHg 75%
    09:00 +27°C° 0 mm 2 mps 711 mmHg 68%
    10:00 +29°C° 0 mm 2 mps 712 mmHg 61%
    11:00 +29°C° 0 mm 3 mps 711 mmHg 60%
    12:00 +29°C° 0 mm 3 mps 710 mmHg 60%
    13:00 +30°C° 0 mm 3 mps 710 mmHg 59%
    14:00 +29°C° 0 mm 3 mps 709 mmHg 62%
    15:00 +29°C° 0 mm 3 mps 709 mmHg 65%
    16:00 +28°C° 0 mm 2 mps 708 mmHg 68%
    17:00 +27°C° 0 mm 2 mps 708 mmHg 73%
    18:00 +25°C° 0 mm 2 mps 709 mmHg 79%
    19:00 +24°C° 0 mm 1 mps 709 mmHg 85%
    20:00 +24°C° 0 mm 1 mps 709 mmHg 85%
    21:00 +23°C° 0 mm 1 mps 710 mmHg 85%
    22:00 +23°C° 0 mm 1 mps 710 mmHg 85%
    23:00 +23°C° 0 mm 1 mps 710 mmHg 85%

    19 December, Thursday

    Time Temperature Precipitation Wind Pressure Humidity
    00:00 +23°C° 0 mm 1 mps 710 mmHg 86%
    01:00 +22°C° 0 mm 1 mps 709 mmHg 86%
    02:00 +22°C° 0 mm 1 mps 709 mmHg 86%
    03:00 +22°C° 0 mm 1 mps 709 mmHg 87%
    04:00 +22°C° 0 mm 1 mps 709 mmHg 87%
    05:00 +22°C° 0 mm 1 mps 710 mmHg 84%
    06:00 +23°C° 0 mm 1 mps 710 mmHg 81%
    07:00 +22°C° 0 mm 0 mps 711 mmHg 79%
    08:00 +25°C° 0 mm 1 mps 711 mmHg 71%
    09:00 +27°C° 0 mm 1 mps 712 mmHg 63%
    10:00 +29°C° 0 mm 2 mps 712 mmHg 55%
    11:00 +29°C° 0 mm 2 mps 711 mmHg 54%
    12:00 +30°C° 0 mm 2 mps 711 mmHg 53%
    13:00 +30°C° 0 mm 3 mps 710 mmHg 52%
    14:00 +30°C° 0 mm 2 mps 710 mmHg 56%
    15:00 +29°C° 0 mm 2 mps 709 mmHg 60%
    16:00 +29°C° 0 mm 1 mps 709 mmHg 65%
    17:00 +27°C° 0 mm 1 mps 709 mmHg 71%
    18:00 +25°C° 0 mm 2 mps 709 mmHg 78%
    19:00 +24°C° 0 mm 2 mps 710 mmHg 85%
    20:00 +23°C° 0 mm 2 mps 710 mmHg 85%
    21:00 +23°C° 0 mm 1 mps 711 mmHg 86%
    22:00 +23°C° 0 mm 1 mps 711 mmHg 86%
    23:00 +23°C° 0.1 mm 1 mps 711 mmHg 86%

    20 December, Friday

    Time Temperature Precipitation Wind Pressure Humidity
    00:00 +23°C° 0.1 mm 1 mps 710 mmHg 86%
    01:00 +21°C° 0.1 mm 0 mps 710 mmHg 86%
    02:00 +23°C° 0 mm 1 mps 710 mmHg 86%
    03:00 +22°C° 0 mm 1 mps 710 mmHg 86%
    04:00 +22°C° 0 mm 1 mps 710 mmHg 86%
    05:00 +21°C° 0 mm 0 mps 710 mmHg 83%
    06:00 +22°C° 0 mm 0 mps 711 mmHg 80%
    07:00 +22°C° 0 mm 0 mps 711 mmHg 78%
    08:00 +26°C° 0 mm 1 mps 712 mmHg 72%
    09:00 +28°C° 0 mm 1 mps 712 mmHg 66%
    10:00 +29°C° 0 mm 1 mps 712 mmHg 61%
    11:00 +29°C° 0.3 mm 1 mps 711 mmHg 61%
    12:00 +30°C° 0.3 mm 2 mps 711 mmHg 61%
    13:00 +30°C° 0.3 mm 2 mps 710 mmHg 62%
    14:00 +29°C° 0.5 mm 2 mps 709 mmHg 66%
    15:00 +29°C° 0.5 mm 2 mps 709 mmHg 71%
    16:00 +28°C° 0.5 mm 2 mps 708 mmHg 75%
    17:00 +27°C° 0.3 mm 2 mps 709 mmHg 80%
    18:00 +25°C° 0.3 mm 2 mps 709 mmHg 84%
    19:00 +24°C° 0.3 mm 2 mps 709 mmHg 89%
    20:00 +24°C° 0.3 mm 1 mps 710 mmHg 89%
    21:00 +24°C° 0.3 mm 1 mps 710 mmHg 89%
    22:00 +24°C° 0.3 mm 1 mps 711 mmHg 90%
    23:00 +23°C° 0 mm 1 mps 710 mmHg 90%

    21 December, Saturday

    Time Temperature Precipitation Wind Pressure Humidity
    00:00 +23°C° 0 mm 1 mps 710 mmHg 91%
    01:00 +23°C° 0 mm 1 mps 710 mmHg 91%
    02:00 +23°C° 0 mm 1 mps 710 mmHg 91%
    03:00 +23°C° 0 mm 1 mps 710 mmHg 91%
    04:00 +23°C° 0 mm 1 mps 709 mmHg 91%
    05:00 +23°C° 0 mm 1 mps 710 mmHg 89%
    06:00 +24°C° 0 mm 1 mps 710 mmHg 87%
    07:00 +22°C° 0 mm 0 mps 711 mmHg 86%
    08:00 +26°C° 0.1 mm 1 mps 711 mmHg 79%
    09:00 +28°C° 0.1 mm 1 mps 712 mmHg 71%
    10:00 +29°C° 0.1 mm 1 mps 712 mmHg 64%
    11:00 +29°C° 0.6 mm 1 mps 711 mmHg 65%
    12:00 +29°C° 0.6 mm 1 mps 711 mmHg 65%
    13:00 +29°C° 0.6 mm 2 mps 710 mmHg 66%
    14:00 +29°C° 0.6 mm 2 mps 709 mmHg 69%
    15:00 +28°C° 0.6 mm 2 mps 709 mmHg 72%
    16:00 +28°C° 0.6 mm 2 mps 708 mmHg 76%
    17:00 +27°C° 0.2 mm 2 mps 708 mmHg 80%
    18:00 +26°C° 0.2 mm 1 mps 709 mmHg 84%
    19:00 +24°C° 0.2 mm 1 mps 709 mmHg 89%
    20:00 +24°C° 0.3 mm 1 mps 709 mmHg 89%
    21:00 +24°C° 0.3 mm 1 mps 710 mmHg 90%
    22:00 +24°C° 0.3 mm 1 mps 710 mmHg 90%
    23:00 +23°C° 0.2 mm 1 mps 710 mmHg 90%
    Show more